Weather in Maslovo

Russia / Sverdlovsk Oblast     60°06′46″N   60°27′33″E
temp.,
°C
wind,
m/s
gust,
m/s
humid.,
%
clouds,
%
prec.,
mm/h
press.,
hPa
HPBL,
m
26 july, mon
mon2623:00+12w376797 0.1 1015256
02:00+11wsw2767100 0.0 1016191
05:00+11wsw2666100 0.0 1015158
08:00+15wsw4856100 0.0 1015514
11:00+19wnw5642100 0.0 10142377
14:00+18w3548100 0.0 10131693
17:00+20w464396 0.0 10122274
20:00+16w386431 0.0 1012564
27 july, tue
tue2723:00+12sw3109038 0.1 1011277
02:00+13sw31081100 0.0 1009437
05:00+12wsw41292100 0.5 1007766
08:00+14wnw48785 0.1 1007934
11:00+16wnw564963 0.2 10071807
14:00+16wnw564490 0.0 10081795
17:00+14wnw684818 0.0 10091497
20:00+11w576624 0.1 1009943
28 july, wed
wed2823:00+9w377586 0.1 1009450
02:00+8wsw3783100 0.0 1008252
05:00+8w3774100 0.0 1007548
08:00+8nw3682100 0.2 1007748
11:00+12nw465397 0.4 10081695
14:00+13nw4546100 0.1 10081858
17:00+14wnw4643100 0.1 10082188
20:00+12wnw4758100 0.0 1009951
29 july, thu
thu2923:00+7w3875100 0.0 1009279
02:00+5w258693 0.0 100899
05:00+6w268998 0.0 1008165
08:00+11w236879 0.0 1007535
11:00+12wsw2364100 0.0 1007836
14:00+16nw2545100 0.0 10061992
17:00+15wsw125899 0.0 1006664
20:00+13e256795 0.0 1005184
30 july, fri
fri3023:00+9sse118498 0.0 100519
02:00+8wsw1194100 0.0 100511
05:00+7w119591 0.0 100511
08:00+13nw017296 0.0 1005218
11:00+19se125160 0.0 10041017
14:00+22sw234684 0.0 10031609
17:00+22sw2249100 0.0 10031029
20:00+18ene2472100 0.0 1003132